FW5313 Weather Reports


time (UTC)temp
C
wind
direction
speed
KPH
gust
KPH
rain 1hr
cm
rain 24hr
cm
rain mn
cm
humidity
%
barometer
mb
20260506192544 7 0 0.0 3.2 0.10 1.88 1.65 97 1004.1
20260506192044 7 178 0.0 4.8 0.10 1.88 1.65 97 1004.0
20260506191552 7 178 0.0 4.8 0.08 1.85 1.63 96 1004.2
20260506191044 7 178 1.6 4.8 0.08 1.85 1.63 97 1004.2
20260506190546 7 178 1.6 4.8 0.05 1.83 1.60 96 1004.1
20260506190048 7 178 0.0 3.2 0.05 1.83 1.60 96 1004.2
20260506185546 7 0 0.0 3.2 0.08 1.83 1.60 96 1004.0
20260506185044 7 178 1.6 1.6 0.08 1.83 1.60 96 1004.1
20260506184556 7 178 1.6 1.6 0.05 1.80 1.57 96 1004.0
20260506184048 7 178 0.0 3.2 0.05 1.78 1.55 96 1004.0
20260506183548 8 178 0.0 3.2 0.08 1.78 1.55 96 1004.0
20260506183058 8 178 1.6 3.2 0.10 1.78 1.55 96 1004.1
20260506182544 8 178 0.0 3.2 0.15 1.78 1.55 96 1004.0
20260506182044 8 178 0.0 3.2 0.23 1.78 1.55 96 1004.1
20260506181559 9 178 1.6 3.2 0.30 1.78 1.55 96 1003.9
20260506181044 9 0 0.0 1.6 0.33 1.78 1.55 96 1004.2
20260506180545 9 178 0.0 3.2 0.38 1.78 1.55 96 1004.3
20260506175548 10 178 0.0 3.2 0.36 1.75 1.52 97 1004.4
20260506175044 10 178 0.0 1.6 0.38 1.75 1.52 97 1004.4
20260506174553 9 0 0.0 0.0 0.36 1.73 1.47 97 1004.6
20260506174047 9 0 0.0 3.2 0.38 1.73 1.47 96 1004.6
20260506173548 9 0 0.0 3.2 0.38 1.70 1.47 96 1004.8
20260506173116 10 0 0.0 3.2 0.38 1.68 1.45 96 1004.8
20260506172546 10 178 0.0 3.2 0.36 1.63 1.40 96 1004.8
20260506172045 10 0 1.6 3.2 0.30 1.55 1.32 95 1004.8
20260506171601 11 178 3.2 3.2 0.25 1.47 1.24 96 1004.7
20260506171047 11 178 0.0 3.2 0.23 1.45 1.22 98 1004.4
20260506170543 11 0 0.0 1.6 0.20 1.40 1.17 98 1004.7
20260506170053 11 178 0.0 0.0 0.23 1.40 1.17 97 1004.6
20260506165546 11 0 0.0 3.2 0.23 1.40 1.17 97 1004.7
20260506165046 11 0 0.0 3.2 0.23 1.37 1.14 97 1004.8
20260506164558 11 178 1.6 3.2 0.25 1.37 1.14 96 1004.8
20260506164045 11 178 1.6 3.2 0.25 1.32 1.12 98 1004.8
20260506163545 12 178 0.0 1.6 0.23 1.32 1.09 98 1004.7
20260506163107 11 0 0.0 1.6 0.23 1.30 1.07 98 1004.8
20260506162549 11 178 0.0 3.2 0.23 1.27 1.04 98 1004.8
20260506162047 11 178 0.0 3.2 0.23 1.24 1.02 98 1005.0
20260506161558 11 0 0.0 1.6 0.20 1.22 0.99 98 1005.0
20260506161046 11 0 0.0 1.6 0.23 1.22 0.99 98 1005.1
20260506160545 11 0 0.0 1.6 0.23 1.19 0.97 98 1005.2
20260506160105 10 0 0.0 1.6 0.20 1.17 0.94 98 1005.4
20260506155545 10 0 0.0 1.6 0.23 1.17 0.94 98 1005.3
20260506155045 10 178 0.0 0.0 0.23 1.14 0.91 97 1005.4
20260506154553 10 178 0.0 1.6 0.20 1.12 0.89 97 1005.5
20260506154045 10 0 0.0 1.6 0.20 1.09 0.86 97 1005.5
20260506153545 10 178 0.0 3.2 0.18 1.07 0.84 97 1005.7
20260506153055 10 0 1.6 3.2 0.20 1.07 0.84 97 1005.8
20260506152545 10 178 1.6 3.2 0.18 1.04 0.81 97 1005.7
20260506152048 10 0 0.0 1.6 0.18 1.02 0.79 97 1005.6
20260506151554 10 178 0.0 0.0 0.18 1.02 0.79 97 1005.5
20260506151045 10 0 0.0 0.0 0.15 0.99 0.76 97 1005.7
20260506150545 10 178 0.0 0.0 0.15 0.97 0.74 97 1006.0
20260506150058 10 0 0.0 0.0 0.13 0.94 0.71 97 1006.0
20260506145548 10 0 0.0 0.0 0.15 0.94 0.71 97 1006.0
20260506145045 10 178 0.0 0.0 0.13 0.91 0.69 97 1005.8
20260506144555 10 0 0.0 0.0 0.15 0.91 0.69 97 1006.1
20260506144045 9 178 0.0 0.0 0.13 0.89 0.66 97 1006.1
20260506143545 9 0 0.0 1.6 0.15 0.89 0.66 97 1006.1
20260506143055 9 0 0.0 1.6 0.13 0.86 0.64 97 1006.1
20260506142544 9 0 0.0 1.6 0.15 0.86 0.64 97 1006.2
20260506142047 9 0 0.0 1.6 0.13 0.84 0.61 97 1006.2
20260506141556 9 178 0.0 1.6 0.15 0.84 0.61 97 1006.1
20260506141045 9 0 0.0 1.6 0.18 0.84 0.61 97 1006.1
20260506140545 10 0 0.0 1.6 0.15 0.81 0.58 97 1006.2
20260506140053 10 178 0.0 1.6 0.18 0.81 0.58 97 1006.2
20260506135543 9 0 0.0 0.0 0.18 0.79 0.56 97 1006.2
20260506135043 9 0 0.0 1.6 0.20 0.79 0.56 97 1006.2
20260506134615 9 178 0.0 1.6 0.18 0.76 0.53 97 1006.3
20260506134046 9 178 0.0 1.6 0.20 0.76 0.53 97 1006.4
20260506133544 9 0 0.0 1.6 0.18 0.74 0.51 97 1006.4
20260506133051 9 0 0.0 1.6 0.20 0.74 0.51 97 1006.5
20260506132543 9 178 0.0 1.6 0.18 0.71 0.48 97 1006.6
20260506132045 10 178 0.0 0.0 0.18 0.71 0.48 97 1006.4
20260506131607 9 0 0.0 0.0 0.18 0.69 0.46 97 1006.5
20260506131044 9 0 0.0 1.6 0.15 0.66 0.43 97 1006.5
20260506130543 9 0 0.0 1.6 0.15 0.66 0.43 97 1006.7
20260506130052 9 0 0.0 3.2 0.13 0.64 0.41 97 1006.7
20260506125544 9 0 0.0 3.2 0.10 0.61 0.38 97 1006.6
20260506125045 9 0 1.6 4.8 0.08 0.58 0.36 97 1006.9
20260506124557 9 0 0.0 4.8 0.08 0.58 0.36 97 1006.9
20260506124044 9 178 1.6 3.2 0.08 0.56 0.33 97 1007.1
20260506123544 9 0 0.0 1.6 0.08 0.56 0.33 97 1006.9
20260506123048 9 0 0.0 1.6 0.05 0.53 0.30 97 1006.8
20260506122544 9 0 0.0 1.6 0.05 0.53 0.30 97 1006.8
20260506122043 10 178 0.0 0.0 0.05 0.53 0.30 97 1007.0
20260506121554 10 0 0.0 0.0 0.03 0.51 0.28 97 1006.9
20260506121045 10 0 0.0 1.6 0.03 0.51 0.28 97 1006.9
20260506120545 10 0 0.0 1.6 0.03 0.51 0.28 97 1007.0
20260506120051 10 178 0.0 3.2 0.03 0.51 0.28 97 1007.0
20260506115544 10 0 0.0 3.2 0.03 0.51 0.28 97 1006.9
20260506115044 10 172 1.6 3.2 0.03 0.51 0.28 97 1007.2
20260506114552 10 0 0.0 1.6 0.03 0.51 0.28 97 1007.0
20260506114043 10 178 0.0 1.6 0.00 0.48 0.25 97 1007.0
20260506113543 10 0 1.6 1.6 0.00 0.48 0.25 97 1007.2
20260506113046 10 0 0.0 0.0 0.00 0.48 0.25 97 1006.8
20260506112545 10 178 0.0 0.0 0.00 0.48 0.25 97 1007.0
20260506112045 10 0 0.0 0.0 0.00 0.48 0.25 97 1007.0
20260506111608 10 0 0.0 1.6 0.00 0.48 0.25 97 1007.1
20260506111042 10 0 0.0 1.6 0.00 0.48 0.25 97 1007.1
20260506110543 10 0 0.0 0.0 0.00 0.48 0.25 97 1007.1
20260506110051 9 0 0.0 0.0 0.00 0.48 0.25 97 1007.0
20260506105544 9 0 0.0 0.0 0.00 0.48 0.25 97 1007.0
20260506105042 9 0 0.0 0.0 0.00 0.48 0.25 97 1006.8
20260506104547 9 0 0.0 0.0 0.00 0.48 0.25 97 1006.7
20260506104045 9 0 0.0 0.0 0.00 0.48 0.25 97 1006.6
20260506103543 9 0 0.0 0.0 0.00 0.48 0.25 97 1007.0
20260506103047 9 0 0.0 0.0 0.00 0.48 0.25 97 1006.9
20260506102542 9 0 0.0 1.6 0.00 0.48 0.25 97 1006.9
20260506102044 9 0 0.0 1.6 0.00 0.48 0.25 97 1006.4
20260506101549 9 131 0.0 1.6 0.00 0.48 0.25 97 1006.6
20260506101044 9 0 0.0 1.6 0.00 0.48 0.25 97 1006.4
20260506100544 9 0 0.0 1.6 0.00 0.48 0.25 97 1007.0
20260506100051 9 0 0.0 1.6 0.00 0.48 0.25 97 1006.8
20260506095544 9 0 0.0 1.6 0.00 0.48 0.25 97 1006.7
20260506095047 9 0 0.0 1.6 0.00 0.48 0.25 96 1006.9
20260506094550 9 0 0.0 1.6 0.00 0.48 0.25 96 1006.9
20260506094043 9 0 0.0 1.6 0.00 0.48 0.25 96 1007.0
20260506093547 9 0 0.0 1.6 0.00 0.48 0.25 96 1006.9
20260506093058 9 0 0.0 0.0 0.00 0.48 0.25 96 1007.0
20260506092544 9 0 0.0 1.6 0.00 0.48 0.25 96 1007.0
20260506092051 9 0 0.0 1.6 0.00 0.48 0.25 96 1007.0
20260506091604 9 130 0.0 1.6 0.00 0.48 0.25 96 1007.1
20260506091046 9 129 0.0 1.6 0.00 0.48 0.25 96 1007.3
20260506090551 9 129 1.6 1.6 0.00 0.48 0.25 96 1007.2
20260506090054 9 129 0.0 1.6 0.00 0.48 0.25 96 1007.0
20260506085543 9 130 0.0 1.6 0.00 0.48 0.25 96 1007.3
20260506085043 9 129 0.0 1.6 0.00 0.48 0.25 96 1007.2
20260506084604 9 136 0.0 1.6 0.00 0.48 0.25 96 1007.0
20260506084042 9 136 0.0 1.6 0.00 0.48 0.25 96 1007.1
20260506083543 9 136 0.0 3.2 0.00 0.48 0.25 96 1007.3
20260506083115 9 136 1.6 3.2 0.00 0.48 0.25 96 1007.3
20260506082542 10 0 1.6 3.2 0.00 0.48 0.25 96 1007.6
20260506082043 10 0 0.0 0.0 0.00 0.48 0.25 97 1007.7
20260506081553 10 0 0.0 0.0 0.00 0.48 0.25 96 1007.6
20260506081044 9 168 0.0 0.0 0.00 0.48 0.25 96 1007.4
20260506080543 9 0 0.0 0.0 0.00 0.48 0.25 96 1007.5
20260506073057 10 0 0.0 1.6 0.00 0.48 0.25 96 1007.1
20260506072543 10 0 0.0 1.6 0.00 0.48 0.25 96 1007.2
20260506072043 10 168 0.0 1.6 0.00 0.48 0.25 96 1007.1
20260506071556 10 171 0.0 1.6 0.00 0.48 0.25 96 1007.3
20260506071043 10 0 0.0 1.6 0.00 0.48 0.25 96 1007.2
20260506070542 10 0 0.0 1.6 0.00 0.48 0.25 96 1007.2
20260506070121 10 178 0.0 0.0 0.00 0.48 0.25 96 1007.1
20260506062045 10 0 0.0 1.6 0.08 0.48 0.25 96 1007.2
20260506061553 10 0 0.0 1.6 0.08 0.48 0.25 95 1007.4
20260506061045 10 132 0.0 1.6 0.10 0.48 0.25 95 1007.4
20260506060543 10 132 0.0 1.6 0.15 0.48 0.25 95 1007.4
20260506051042 11 178 0.0 4.8 0.15 0.38 0.15 91 1007.7
20260506050542 11 178 1.6 4.8 0.10 0.33 0.10 92 1008.5
20260506045041 12 0 0.0 0.0 0.05 0.25 0.03 92 1008.0
20260506044549 12 0 0.0 1.6 0.05 0.25 0.03 91 1007.8
20260506044045 12 0 0.0 4.8 0.03 0.23 0.00 90 1007.5
20260506043547 12 0 0.0 4.8 0.03 0.23 0.00 87 1007.6
20260506043047 12 178 1.6 4.8 0.03 0.23 0.00 87 1007.8
20260506042543 12 178 1.6 4.8 0.03 0.23 0.00 87 1007.8
20260506042042 12 176 0.0 1.6 0.03 0.23 0.00 88 1007.6
20260506041548 13 0 0.0 3.2 0.03 0.23 0.00 88 1007.6
20260506041042 13 0 0.0 4.8 0.03 0.23 0.00 87 1007.6
20260506040547 13 0 1.6 6.4 0.03 0.23 0.00 87 1007.4
20260506040053 13 178 1.6 6.4 0.03 0.23 0.00 87 1007.3
20260506035546 13 95 1.6 6.4 0.03 0.23 0.23 88 1007.4
20260506035044 13 0 0.0 3.2 0.00 0.20 0.20 87 1007.4
20260506034557 13 0 0.0 3.2 0.00 0.20 0.20 86 1007.2
20260506034043 13 178 0.0 3.2 0.00 0.20 0.20 87 1007.2
20260506033541 13 178 0.0 3.2 0.00 0.20 0.20 86 1007.2
20260506033049 13 114 0.0 1.6 0.00 0.20 0.20 86 1007.0
20260506032541 13 114 0.0 1.6 0.00 0.20 0.20 86 1006.9
20260506032041 13 0 0.0 1.6 0.00 0.20 0.20 87 1007.0
20260506031550 13 114 0.0 1.6 0.00 0.20 0.20 87 1006.8
20260506031047 13 114 0.0 1.6 0.00 0.20 0.20 86 1006.7
20260506030543 13 114 0.0 1.6 0.00 0.20 0.20 86 1006.9
20260506030054 13 114 0.0 3.2 0.00 0.20 0.20 84 1006.7
20260506025541 13 114 1.6 3.2 0.00 0.20 0.20 83 1006.7
20260506025043 13 40 0.0 3.2 0.00 0.20 0.20 83 1006.7
20260506024600 13 0 0.0 3.2 0.00 0.20 0.20 82 1006.6
20260506024045 13 97 0.0 3.2 0.00 0.20 0.20 83 1006.7
20260506023545 13 98 0.0 1.6 0.00 0.20 0.20 82 1006.7
20260506023051 13 98 0.0 3.2 0.00 0.20 0.20 82 1006.8
20260506022547 13 98 0.0 3.2 0.00 0.20 0.20 83 1006.8
20260506022047 13 0 0.0 3.2 0.00 0.20 0.20 83 1006.9
20260506021553 13 0 0.0 3.2 0.00 0.20 0.20 83 1006.8
20260506021046 13 0 0.0 3.2 0.00 0.20 0.20 84 1007.0
20260506020547 12 0 0.0 0.0 0.00 0.20 0.20 85 1006.9
20260506020105 12 153 0.0 1.6 0.00 0.20 0.20 85 1006.7
20260506015547 12 153 0.0 1.6 0.00 0.20 0.20 85 1006.7
20260506015114 12 153 0.0 1.6 0.00 0.20 0.20 86 1006.7
20260506015041 12 153 0.0 1.6 0.00 0.20 0.20 86 1006.7
20260506014607 12 153 0.0 0.0 0.00 0.20 0.20 85 1006.7
20260506014044 12 153 0.0 1.6 0.00 0.20 0.20 85 1006.5
20260506013541 12 0 0.0 1.6 0.00 0.20 0.20 84 1006.4
20260506013051 12 153 0.0 1.6 0.00 0.20 0.20 85 1006.3
20260506012545 12 153 0.0 1.6 0.00 0.20 0.20 85 1006.4
20260506012045 12 0 0.0 1.6 0.00 0.20 0.20 83 1006.4
20260506011616 13 153 0.0 1.6 0.00 0.20 0.20 82 1006.4
20260506011046 12 153 0.0 1.6 0.00 0.20 0.20 82 1006.3
20260506010626 13 153 0.0 1.6 0.00 0.20 0.20 82 1006.3
20260506010051 13 0 0.0 1.6 0.00 0.20 0.20 82 1006.2
20260506005544 13 160 0.0 1.6 0.00 0.20 0.20 82 1006.2
20260506005041 13 160 0.0 1.6 0.00 0.20 0.20 82 1006.2
20260506004601 13 160 0.0 1.6 0.00 0.20 0.20 81 1006.1
20260506004041 13 160 0.0 1.6 0.00 0.20 0.20 81 1006.0
20260506003542 13 166 0.0 1.6 0.00 0.20 0.20 81 1006.1
20260506003049 13 171 0.0 1.6 0.00 0.20 0.20 80 1006.1
20260506002541 13 171 0.0 6.4 0.00 0.20 0.20 79 1006.0
20260506002041 14 171 1.6 6.4 0.00 0.20 0.20 79 1006.0
20260506001548 14 109 0.0 3.2 0.00 0.20 0.20 80 1005.9
20260506001041 14 0 0.0 4.8 0.00 0.20 0.20 78 1005.9
20260506000559 14 0 0.0 6.4 0.00 0.20 0.20 77 1005.9
20260506000115 14 235 1.6 6.4 0.00 0.20 0.20 77 1006.1
20260505235547 14 193 0.0 6.4 0.00 0.20 0.20 77 1006.2
20260505235047 14 223 0.0 1.6 0.00 0.20 0.20 77 1006.1
20260505234555 15 224 0.0 4.8 0.00 0.20 0.20 77 1006.1
20260505234042 15 261 1.6 4.8 0.00 0.20 0.20 76 1006.2
20260505233544 14 0 0.0 4.8 0.00 0.20 0.20 77 1006.2
20260505233055 14 217 0.0 4.8 0.00 0.20 0.20 80 1006.2
20260505232545 14 193 0.0 4.8 0.00 0.20 0.20 78 1006.2
20260505232048 15 0 0.0 1.6 0.00 0.20 0.20 79 1006.0
20260505231609 15 0 0.0 1.6 0.00 0.20 0.20 77 1005.7
20260505231049 15 0 0.0 8.0 0.00 0.20 0.20 77 1005.8
20260505230544 15 0 0.0 8.0 0.00 0.20 0.20 76 1005.7
20260505225544 15 262 0.0 3.2 0.00 0.20 0.20 78 1005.5
20260505225046 15 0 0.0 9.7 0.00 0.20 0.20 76 1005.3
20260505224549 15 218 3.2 9.7 0.00 0.20 0.20 76 1005.7
20260505224041 15 244 1.6 9.7 0.00 0.20 0.20 76 1005.4
20260505223541 15 249 1.6 11.3 0.00 0.20 0.20 79 1005.8
20260505223054 15 193 3.2 11.3 0.00 0.20 0.20 77 1005.2
20260505222541 15 193 3.2 9.7 0.00 0.20 0.20 78 1005.5
20260505222042 15 212 4.8 9.7 0.00 0.20 0.20 80 1005.4
20260505221556 14 205 3.2 6.4 0.00 0.20 0.20 81 1005.0
20260505221040 14 0 1.6 4.8 0.00 0.20 0.20 82 1004.9
20260505220543 14 250 1.6 9.7 0.00 0.20 0.20 83 1004.8
20260505220049 15 268 1.6 11.3 0.00 0.20 0.20 82 1005.1
20260505215544 15 261 6.4 14.5 0.00 0.20 0.20 79 1005.5
20260505215046 16 250 3.2 14.5 0.00 0.20 0.20 75 1005.6
20260505214548 16 178 1.6 8.0 0.03 0.20 0.20 76 1005.9
20260505214044 16 178 1.6 8.0 0.03 0.20 0.20 76 1005.6
20260505213541 16 178 1.6 6.4 0.05 0.20 0.20 74 1005.2
20260505213053 16 178 1.6 9.7 0.05 0.20 0.20 76 1004.8
20260505212541 16 178 1.6 9.7 0.05 0.20 0.20 74 1004.6
20260505212041 16 178 3.2 8.0 0.05 0.20 0.20 70 1004.3
20260505211553 16 178 1.6 6.4 0.05 0.20 0.20 75 1004.0
20260505211041 15 178 3.2 6.4 0.08 0.20 0.20 77 1004.0
20260505210540 15 134 1.6 8.0 0.10 0.20 0.20 83 1003.8
20260505210050 15 178 3.2 11.3 0.15 0.20 0.20 83 1004.3
20260505205543 15 178 1.6 11.3 0.20 0.20 0.20 83 1004.0
20260505205045 15 163 3.2 19.3 0.20 0.20 0.20 83 1004.3
20260505204552 15 94 6.4 19.3 0.18 0.18 0.18 82 1004.8
20260505204046 15 165 6.4 19.3 0.18 0.18 0.18 83 1004.7
20260505203545 15 172 4.8 14.5 0.15 0.15 0.15 83 1004.5
20260505203100 15 178 4.8 14.5 0.15 0.15 0.15 80 1004.1
20260505202547 15 178 6.4 14.5 0.15 0.15 0.15 82 1004.3
20260505202047 14 102 3.2 12.9 0.15 0.15 0.15 87 1004.4
20260505201554 14 178 1.6 12.9 0.15 0.15 0.15 83 1004.2
20260505201047 15 70 4.8 14.5 0.13 0.13 0.13 81 1004.5
20260505200547 16 178 4.8 16.1 0.08 0.08 0.08 76 1005.6
20260505200054 17 210 4.8 17.7 0.05 0.05 0.05 69 1004.9
20260505195547 18 235 8.0 17.7 0.00 0.00 0.00 64 1004.3
20260505195048 19 259 6.4 17.7 0.00 0.00 0.00 58 1004.2
20260505194618 20 205 6.4 12.9 0.00 0.00 0.00 57 1003.6
20260505194046 20 236 4.8 9.7 0.00 0.00 0.00 49 1003.3
20260505193548 21 204 4.8 12.9 0.00 0.00 0.00 48 1002.4
20260505193103 21 198 4.8 12.9 0.00 0.00 0.00 50 1002.2